{"data":{"norad_id":58793,"epoch":"2026-09-20T09:03:55.380384Z","epoch_age_seconds":163131,"freshness":"FRESH","line1":"1 58793U 24012G   26263.37772431  .00000053  00000+0  11434-4 0  9998","line2":"2 58793  43.0016 145.5261 0000887 271.6730  88.4020 15.27576698151017","mean_motion":15.27576698,"eccentricity":8.87e-5,"inclination_deg":43.0016,"raan_deg":145.5261,"arg_perigee_deg":271.673,"mean_anomaly_deg":88.402,"bstar":1.1434e-5,"rev_number":15101,"period_min":94.266952480052,"perigee_km":482.45039534962,"apogee_km":483.66757151708,"semimajor_km":6861.1959834334,"source":"CELESTRAK","updated_at":"2026-09-21T09:00:33.979756Z"}}